Location: Bonn
(50.7330°N, 7.1000°E)
Time: 12:21:41
(UTC+02:00)

Iridium 67 - Visible Passes

Search period start: 28 July 2015 00:00
Search period end: 07 August 2015 00:00
Orbit: 776 x 779 km, 86.4° (Epoch: 27 July)

Date Brightness Start Highest point End Pass type
(mag) Time Alt. Az. Time Alt. Az. Time Alt. Az.
28 Jul 7.7 01:27:44 10° NNE 01:31:16 18° ENE 01:34:56 10° ESE visible
28 Jul 5.5 03:07:28 10° N 03:12:42 75° W 03:15:30 28° S visible
28 Jul 7.6 04:50:32 10° NW 04:52:37 12° WNW 04:54:25 10° W visible
29 Jul 8.0 00:55:45 10° NE 00:57:11 11° ENE 00:58:53 10° E visible
29 Jul 5.7 02:33:56 10° N 02:39:09 66° E 02:41:50 29° SSE visible
29 Jul 7.1 04:15:38 10° NNW 04:19:25 20° WNW 04:22:17 13° WSW visible
30 Jul 6.5 02:00:34 10° N 02:05:27 39° ENE 02:08:11 23° SE visible
30 Jul 6.5 03:41:30 10° NNW 03:46:08 33° W 03:48:38 21° SW visible
31 Jul 7.2 01:27:25 10° NNE 01:31:37 24° ENE 01:34:32 16° ESE visible
31 Jul 5.8 03:07:39 10° NNW 03:12:46 55° W 03:14:59 31° SSW visible
01 Aug 7.8 00:54:42 10° NNE 00:57:38 15° ENE 01:00:45 10° ESE visible
01 Aug 5.5 02:34:01 10° N 02:39:16 89° E 02:41:21 38° S visible
01 Aug 7.4 04:16:22 10° NW 04:19:19 15° WNW 04:21:49 11° WSW visible
02 Aug 6.0 02:00:32 10° N 02:05:39 54° E 02:07:44 33° SE visible
02 Aug 6.9 03:41:54 10° NNW 03:46:06 24° W 03:48:11 19° WSW visible
03 Aug 6.8 01:27:15 10° NNE 01:31:55 32° ENE 01:34:06 24° ESE visible
03 Aug 6.2 03:07:54 10° NNW 03:12:47 40° W 03:14:34 30° SW visible
04 Aug 7.4 00:54:14 10° NNE 00:58:01 20° ENE 01:00:30 15° ESE visible
04 Aug 5.6 02:34:09 10° N 02:39:21 67° W 02:40:57 43° SSW visible
04 Aug 7.7 04:17:52 10° WNW 04:19:11 11° WNW 04:20:13 10° W visible
05 Aug 7.8 00:21:53 10° NE 00:23:58 12° ENE 00:26:18 10° E visible
05 Aug 5.6 02:00:35 10° N 02:05:50 74° E 02:07:21 46° SSE visible
05 Aug 7.2 03:42:28 10° NW 03:46:01 18° WNW 03:47:49 15° WSW visible
06 Aug 6.3 01:27:10 10° N 01:32:09 44° ENE 01:33:46 34° ESE visible
06 Aug 6.6 03:08:14 10° NNW 03:12:45 30° W 03:14:13 25° WSW visible
